Dewpoint
-6 -4 1 3 2 -3 -1 -2 -1 1 3 2 2 3 5 3 5 1 2 2 2 1 3 3 4 4 5 4 3 -0 -1 -2 -4 -2 -1 1 2 -4 -4 -6 -7 -4 -3 -3 -4 -6 -5
-8 -6 -5 -2 3 -3 -2 -2 -1 -1 -0 -0 -0 2 3 5 3 4 6 5 5 4 3 3 3 4 3 1 -1 -2 -3 -3 -3 -3 -4 -1 -5 -5 -5 -4 -5 -3 -4 -4 -5 -5 -3
-8 -9 -6 -5 -2 -2 -2 -2 -1 -1 -1 0 1 0 3 3 3 4 6 6 5 4 4 3 4 3 0 1 -2 -3 -4 -4 -3 -4 -6 -7 -7 -7 -6 -4 -4 -5 -5 -4 -3 -4 -2
-9 -9 -7 -6 -5 -3 -3 -2 -2 -2 -1 0 1 -0 2 3 3 4 4 5 4 4 3 4 4 1 1 -1 -2 -3 -4 -4 -5 -5 -5 -5 -6 -7 -5 -5 -5 -6 -6 -5 -3 -3 -2
-11 -9 -8 -6 -6 -4 -3 -3 -2 -1 -2 -1 -0 -0 2 2 3 3 3 3 5 5 5 5 4 2 1 -2 -3 -3 -4 -4 -5 -5 -5 -5 -6 -4 -6 -5 -5 -5 -4 -5 -3 -2 -2
-8 -11 -9 -7 -6 -5 -3 -3 -3 -3 -3 -2 -3 -2 0 1 1 2 2 3 3 4 2 3 2 1 -1 -1 -4 -4 -4 -4 -5 -5 -6 -7 -5 -3 -3 -4 -2 -5 -4 -2 -3 -2 -2
-7 -8 -10 -9 -7 -6 -5 -5 -4 -4 -4 -4 -4 -3 -0 1 0 0 2 2 2 1 0 1 1 0 -1 -2 -2 -3 -5 -6 -6 -5 -2 -4 -0 -1 -2 -3 -5 -5 -5 -4 -3 -2 -1
-6 -8 -7 -9 -10 -8 -6 -5 -5 -4 -4 -5 -6 -5 -4 -1 -1 0 0 2 2 1 -0 -1 -2 -2 -3 -3 -3 -3 -5 -5 -3 -1 -3 -2 0 -2 -2 -4 -4 -5 -4 -3 -3 -2 -1
1 -5 -8 -8 -9 -10 -9 -9 -8 -6 -4 -4 -6 -6 -6 -5 -4 -2 -2 -0 1 1 -0 -3 -2 -3 -3 -4 -4 -4 -3 -3 -2 -1 -2 -1 -2 -3 -3 -2 -1 0 -2 -1 -1 -0 -1
3 2 -2 -7 -9 -8 -9 -9 -8 -6 -4 -6 -7 -6 -6 -5 -5 -4 -2 0 -1 -2 -0 -1 -3 -3 -5 -3 -5 -4 -4 -3 -3 -2 -2 -2 -3 -2 -1 -1 -2 -1 -0 -0 -0 1 -2
3 3 3 1 -4 -9 -9 -9 -9 -7 -3 -3 -4 -7 -6 -6 -5 -5 -4 -0 1 -1 2 -4 -4 -6 -5 -4 -5 -5 -4 -4 -2 -2 -6 -5 -1 -1 -1 -1 -2 -0 -1 -0 1 2 -1
2 3 4 4 3 -0 -5 -9 -10 -9 -6 -4 -1 -2 -4 -6 -4 -2 -1 -0 -4 -1 -2 -4 -4 -4 -4 -3 -3 -3 -3 -4 -3 -2 -2 -1 -3 -3 -2 -3 -2 -1 1 -1 0 0 -1
-2 -1 0 1 2 4 2 -2 -9 -10 -10 -5 -3 0 1 -2 -2 -1 -1 -4 -1 -1 -5 -6 -4 -3 -3 -2 -2 -2 -1 -1 -0 -3 -1 -1 -1 -2 -2 0 -0 -1 -1 -4 -4 -2 -1
-5 -2 -2 -1 -0 1 4 3 -1 -10 -10 -8 -4 -2 -0 2 -0 -1 -4 -4 -2 -4 -2 -6 -3 -2 -2 -2 -2 -1 -1 1 -0 -1 1 -2 -4 -0 -1 1 1 1 -1 -3 -7 -1 0
-4 -1 1 1 1 -1 1 3 3 -3 -10 -9 -5 -2 -1 2 -1 -2 -7 -3 -4 -3 -4 -2 -2 -2 -2 -2 -2 -1 -0 0 0 -1 -1 2 1 -0 -0 1 0 2 2 -0 -2 0 3
-2 -1 1 1 3 4 2 2 4 2 -6 -10 -5 -2 -1 1 -1 -6 -2 -0 -1 -4 -3 -2 -2 -3 -2 -2 -1 -1 0 -1 1 0 -1 0 2 -0 1 1 2 2 1 2 1 2 2
-1 0 2 3 4 4 4 3 3 3 -1 -9 -6 -4 -3 0 -2 -7 -2 -2 -0 -1 -0 0 0 0 -1 0 -0 1 -0 -0 0 0 -0 -0 -2 0 3 3 3 4 3 2 1 1 3
2 3 4 4 4 4 4 4 3 3 1 -4 -9 -6 -3 -2 -1 -1 -1 -1 -1 -1 0 1 0 -0 -0 -0 1 1 1 0 -0 0 2 1 0 1 3 0 0 1 2 2 2 2 3
4 5 5 5 4 4 4 4 4 3 2 -4 -6 -4 -4 -3 -1 -0 1 1 1 0 1 1 1 0 -1 1 2 1 1 1 0 1 2 1 1 -0 -0 1 2 3 2 1 1 1 4
4 4 4 5 4 3 4 4 4 4 2 -3 -6 -3 -5 -3 -1 -1 0 0 1 1 1 1 1 -0 0 1 0 2 1 1 1 1 1 1 1 0 -4 -2 1 4 3 2 2 4 3
4 3 4 4 3 3 4 4 4 4 2 -3 -5 -3 -4 -1 -1 -0 -1 -0 1 1 1 1 0 1 1 1 1 1 0 2 1 2 2 1 3 0 1 1 1 1 2 2 3 3 3
3 3 4 4 4 4 4 3 3 4 3 -3 -5 -4 -3 -2 -1 -1 -1 0 1 0 -0 1 1 -1 0 0 -1 -2 -0 1 0 2 2 1 2 1 1 0 1 2 1 1 1 3 3
3 3 3 3 4 4 4 4 4 4 4 -1 -4 -3 -3 -3 -2 -2 -3 -3 -1 -0 -1 -2 -0 -0 0 -0 -1 -2 -3 -3 -2 1 2 2 2 1 1 -1 -0 -2 -3 -0 -0 -1 0
3 3 3 2 4 5 5 5 4 4 4 4 -2 -4 -2 -5 -2 -2 -3 -2 -1 -1 -1 -1 -0 -1 -2 -1 -2 -2 -1 -1 -1 -0 1 1 1 -0 1 -1 -3 -8 -7 -5 -2 -2 -2
0 -0 0 1 4 5 5 5 5 4 4 4 3 -2 -3 -3 -3 -4 -3 -3 -3 -3 -1 -1 -1 -1 -1 -2 -3 -5 -7 -5 -1 -1 -0 -1 0 1 2 1 -1 -8 -5 -4 -3 -5 -4
-4 -5 -3 1 4 4 4 4 5 5 5 5 5 3 -2 -3 -2 -4 -4 -4 -3 -3 -4 -3 -1 -1 -1 -2 -2 -3 -6 -9 -5 0 -1 -1 -1 0 1 2 1 -10 -8 -4 -6 -11 -13
-7 -7 -1 3 4 4 4 4 5 5 4 4 5 5 2 -1 -1 -3 -3 -4 -4 -4 -4 -4 -1 0 -0 -1 0 0 -2 -5 -4 0 2 2 2 3 2 2 -0 -3 -4 -5 -8 -16 -12
-5 1 2 3 3 4 4 4 5 4 4 4 4 4 4 -0 3 3 0 -1 -2 -3 -3 -4 -2 -1 -0 1 -0 -1 -1 -3 -4 -3 0 1 1 2 1 3 2 -4 -4 -3 -9 -12 -7
-1 2 4 4 3 4 4 3 4 4 4 4 4 5 5 3 3 4 4 4 4 3 -3 -3 -3 -2 -1 0 -1 -1 -0 -1 -3 -3 -2 0 -1 0 -0 -0 -4 -5 -5 -6 -6 -6 -7
Wind_Speed
22 22 22 22 25 27 26 22 21 25 28 32 34 35 36 35 36 20 18 15 18 22 21 20 20 23 22 11 5 10 13 12 16 17 18 18 17 8 5 5 4 5 3 6 6 7 7
22 22 23 23 23 27 25 23 19 24 28 31 29 31 34 33 34 35 28 24 27 29 28 23 21 18 12 12 14 16 15 14 16 17 19 18 10 13 11 5 6 4 9 5 6 6 6
22 22 23 24 22 24 27 22 18 22 28 39 35 22 29 31 31 32 31 26 39 34 28 23 25 27 29 14 20 20 19 17 15 15 17 18 16 4 8 6 6 5 4 3 8 5 4
23 22 23 25 23 21 26 29 18 19 25 34 40 20 25 29 29 30 28 37 32 33 33 22 34 29 14 19 18 20 20 19 17 14 18 15 13 18 7 13 6 5 5 3 4 4 4
24 23 22 23 24 22 21 27 28 21 26 31 35 34 18 23 27 28 30 29 30 29 27 19 23 19 7 13 18 17 16 18 17 16 17 11 9 9 6 5 5 7 2 1 2 3 4
24 23 22 21 22 22 18 16 19 19 22 25 28 30 26 13 16 20 29 30 27 24 20 17 10 8 11 12 16 16 15 13 14 13 10 9 7 5 5 5 4 4 4 1 1 5 4
24 24 22 20 20 19 20 18 18 18 19 21 21 23 26 28 17 10 17 24 17 20 40 23 16 17 16 20 17 13 14 14 11 10 5 8 9 4 3 3 2 5 4 3 0 2 3
24 23 23 22 19 18 17 17 18 19 18 17 17 14 12 17 24 36 34 33 21 14 16 26 28 24 23 16 15 15 9 5 7 5 3 7 4 2 3 5 6 6 3 3 3 1 2
23 24 24 23 22 19 17 18 18 17 18 17 15 12 10 6 9 11 23 25 18 14 7 21 19 22 15 19 12 16 9 7 8 6 6 6 1 3 4 5 6 4 5 1 2 5 0
22 24 25 25 24 23 20 19 19 18 18 17 16 12 9 7 5 8 10 5 6 5 5 9 10 12 14 4 7 16 8 5 7 4 3 6 4 3 4 4 2 1 1 1 2 4 3
22 23 24 25 25 24 23 21 18 16 17 17 16 15 10 9 5 8 7 5 0 2 6 8 7 5 9 8 1 11 12 10 4 3 3 2 2 4 4 1 1 1 1 1 1 3 4
21 23 24 24 24 25 24 22 21 16 12 14 15 15 13 7 8 7 7 6 4 6 1 6 5 5 4 8 3 4 6 11 4 6 6 2 1 2 1 1 2 2 3 5 4 2 2
19 22 23 25 25 24 24 24 22 20 13 7 12 13 13 11 7 6 5 3 5 7 4 4 2 4 3 6 6 5 5 5 3 5 4 5 3 3 1 2 2 4 4 3 5 3 5
19 22 24 26 26 26 24 23 23 21 13 9 7 11 11 10 8 5 4 6 10 3 2 4 4 5 4 4 4 4 3 3 3 4 3 4 5 1 1 1 3 1 4 4 5 2 5
18 20 23 26 27 27 26 23 21 20 16 10 7 5 15 12 9 4 2 7 6 5 2 2 3 4 5 3 2 3 1 4 3 4 4 4 2 1 1 1 2 2 0 3 5 1 3
17 20 23 27 28 28 26 25 22 20 17 11 7 3 14 13 8 4 6 5 4 6 6 3 2 2 2 3 3 2 2 2 3 5 3 5 2 1 1 2 3 2 4 3 2 1 5
18 20 22 24 27 27 27 25 23 21 19 14 4 1 13 13 6 8 4 1 3 4 3 4 5 3 2 1 2 1 1 2 2 2 3 4 3 2 2 6 7 2 2 2 2 4 3
20 20 21 24 25 26 27 26 23 21 20 16 4 3 10 11 5 4 2 4 3 3 1 1 2 2 5 6 4 2 3 5 8 5 4 1 3 4 7 1 4 4 6 6 3 4 4
20 20 22 23 24 26 26 25 24 23 22 18 4 3 8 8 3 2 1 2 2 3 2 1 2 3 2 5 2 4 3 2 8 5 5 3 1 2 5 3 1 4 5 4 3 3 7
19 19 21 22 24 25 25 24 23 23 20 15 5 3 6 8 7 6 3 1 2 2 1 2 1 2 2 1 2 1 2 2 6 3 2 3 2 5 5 2 3 4 5 8 6 4 3
20 21 21 22 23 22 24 23 22 21 19 13 7 2 3 2 5 3 2 5 2 3 3 5 2 5 5 2 1 3 2 1 1 3 3 3 3 1 6 9 7 11 10 9 15 17 10
22 22 22 21 22 22 21 22 22 20 17 8 5 3 2 2 1 2 2 4 5 2 4 3 4 1 5 5 7 5 4 4 5 1 4 1 3 1 5 7 6 12 16 18 20 20 22
24 23 23 23 23 22 18 18 19 19 16 6 7 4 2 2 2 2 3 3 3 4 5 4 5 2 3 11 16 11 8 6 5 8 7 5 2 2 5 4 9 10 15 22 10 10 25
25 26 25 24 21 19 16 15 15 15 14 11 8 5 3 1 1 3 1 4 4 5 3 2 9 5 3 1 3 6 8 11 10 10 10 6 5 2 4 6 3 5 3 4 18 10 19
26 26 26 24 18 12 12 13 13 12 9 8 7 4 3 2 4 4 4 5 7 6 5 6 9 8 5 2 2 5 3 3 3 4 6 5 5 1 2 2 11 6 3 4 6 8 19
22 23 23 18 13 11 11 11 10 10 10 7 7 5 2 2 4 4 1 1 2 2 5 4 5 6 8 3 2 3 4 3 3 1 5 5 3 6 3 2 5 3 4 3 3 6 2
20 19 15 13 14 12 12 11 8 8 10 7 8 8 4 4 6 4 4 3 3 2 2 4 2 3 8 2 3 4 5 4 4 5 5 4 2 12 10 6 9 11 12 7 2 5 4
15 12 10 10 11 11 11 9 8 8 10 8 9 9 10 5 13 18 13 9 7 5 3 3 1 2 2 2 3 4 4 4 2 5 7 8 7 5 8 5 11 14 7 7 6 3 3
13 9 6 8 10 11 10 7 8 10 11 10 13 12 14 14 11 22 28 27 25 21 15 8 4 5 10 2 2 1 3 2 4 4 1 4 8 6 11 9 5 13 10 17 16 17 27
Wind_Direction
30 31 22 19 20 26 26 23 27 27 28 24 24 25 31 32 35 124 110 129 140 137 134 137 130 137 141 114 64 95 112 127 145 138 139 148 142 101 89 99 78 72 100 67 74 58 60
31 30 28 20 20 26 28 26 29 39 29 14 18 24 34 38 40 48 82 108 124 124 130 131 133 134 107 81 79 96 104 121 137 141 128 142 143 122 92 67 63 81 88 90 52 47 35
31 32 32 23 23 26 28 26 31 36 32 31 26 25 38 45 45 57 68 83 114 119 118 117 135 134 88 72 88 97 102 110 130 136 120 121 123 125 104 90 101 87 73 52 21 15 18
30 33 35 29 24 26 34 37 37 41 42 33 31 40 44 50 55 66 68 90 89 102 115 106 125 110 72 74 91 106 100 104 122 128 111 100 107 99 72 112 50 60 50 90 337 358 4
28 28 37 37 29 28 38 48 53 51 35 36 35 33 40 57 54 71 76 78 97 114 119 120 97 85 48 81 91 97 106 100 112 108 97 104 98 74 73 75 41 14 147 93 8 10 346
22 28 30 35 37 31 29 29 30 25 18 22 25 25 31 29 57 63 75 93 84 105 101 98 57 86 60 59 77 91 107 115 113 109 89 56 61 73 38 54 191 168 112 62 40 330 356
22 23 26 29 29 34 32 28 12 4 1 1 12 45 41 47 50 61 99 101 75 53 62 72 71 74 67 72 75 82 104 108 107 70 58 31 63 84 68 29 113 118 96 107 314 28 342
26 22 22 24 29 24 25 22 23 17 12 6 6 26 55 68 61 76 94 87 88 105 62 66 62 62 59 66 64 59 82 85 63 65 3 34 68 344 293 61 79 54 84 9 283 221 359
30 26 24 22 27 25 20 19 17 14 11 11 6 8 27 41 59 63 79 96 104 105 77 36 29 33 34 61 46 27 51 68 70 50 34 100 198 331 84 46 67 34 113 113 242 325 13
31 29 26 24 21 25 22 23 19 23 20 19 19 16 14 26 32 49 67 90 130 141 88 352 358 18 4 48 51 32 44 68 48 108 71 76 348 70 71 70 71 119 197 60 346 38 263
27 28 27 25 22 20 21 19 22 24 27 24 29 31 23 36 51 35 25 23 359 198 67 315 332 360 31 84 144 15 35 68 80 89 81 265 44 67 71 92 8 131 98 33 54 71 37
23 24 24 24 21 18 17 15 14 16 18 28 27 33 32 36 49 40 33 1 348 41 348 333 331 351 39 38 51 73 64 75 105 72 42 86 56 60 117 68 76 125 89 47 53 67 1
17 18 18 20 20 18 14 13 10 9 9 18 25 31 29 25 10 15 20 2 39 79 328 291 358 2 76 20 32 42 33 27 73 80 17 9 349 330 34 70 27 72 58 340 349 8 225
11 10 9 10 13 14 15 10 8 9 11 10 6 19 23 28 19 1 45 52 63 261 267 331 1 5 43 12 24 30 61 53 51 91 98 126 325 178 137 178 183 57 138 153 226 256 284
6 6 4 4 4 7 8 11 6 5 4 5 3 3 14 21 27 26 137 56 172 209 196 56 360 27 357 354 82 60 56 177 209 182 134 148 271 297 199 97 102 170 231 155 99 210 283
359 359 0 359 358 2 5 5 4 3 0 353 347 344 12 8 16 30 69 127 151 190 148 125 65 50 312 330 13 27 217 205 205 202 170 202 108 246 188 109 40 190 151 83 9 286 286
351 354 358 359 357 358 3 4 2 1 360 355 357 20 2 2 23 53 92 138 164 178 150 136 167 145 152 278 176 260 263 316 213 225 201 137 105 263 93 203 181 144 206 93 127 156 194
343 349 352 354 356 357 0 1 2 0 2 359 350 44 7 360 40 35 79 124 130 164 195 158 161 158 166 167 189 229 220 218 184 171 183 200 151 194 207 203 168 180 182 161 138 216 222
333 340 343 347 352 356 2 3 2 1 2 1 18 4 15 15 86 37 62 98 122 131 200 195 261 219 181 175 180 199 215 326 176 164 169 191 299 359 349 18 23 218 196 171 121 112 202
322 328 335 341 348 353 357 4 4 1 3 359 355 16 29 51 75 120 123 125 151 188 193 192 243 17 4 289 206 215 230 162 190 201 178 133 179 206 200 193 134 221 206 194 170 185 206
317 323 331 336 341 347 350 357 1 2 5 359 12 46 30 344 15 79 99 156 146 203 208 198 213 204 175 198 241 244 219 117 159 189 129 115 259 202 268 259 246 243 236 202 210 221 205
311 315 324 330 334 339 346 350 355 360 7 16 21 360 28 78 76 100 26 220 191 198 172 243 200 151 198 203 190 197 163 200 207 106 153 121 262 131 278 279 253 262 244 228 229 230 245
304 307 312 319 326 330 337 344 348 359 10 19 10 355 346 342 76 100 223 184 224 185 230 227 218 178 206 237 244 253 248 248 201 165 183 159 184 13 265 327 297 277 243 215 210 216 223
299 301 303 307 315 325 332 336 341 352 7 15 7 342 330 281 199 213 251 200 199 228 253 227 204 170 276 256 296 268 252 245 215 209 177 150 138 153 287 347 290 249 279 191 211 241 218
294 294 296 299 304 320 323 328 329 337 340 1 4 356 325 292 245 288 255 255 286 254 225 234 237 229 205 170 13 332 325 304 223 211 186 162 141 266 255 264 293 310 17 156 172 279 216
296 296 291 291 299 307 308 322 325 325 327 333 346 339 302 303 250 251 335 233 229 264 321 250 253 224 186 105 119 223 238 260 259 96 25 126 103 171 149 283 261 279 332 297 222 295 302
297 295 292 275 279 293 300 305 309 309 314 306 308 310 286 269 278 233 217 218 205 182 224 291 283 194 197 147 181 201 240 186 232 185 172 142 208 217 213 233 273 248 240 320 316 246 356
295 291 289 275 273 280 298 293 291 292 307 293 288 289 270 237 270 269 255 239 252 223 195 187 12 219 75 204 197 224 210 234 199 176 174 176 170 194 205 217 265 195 104 169 210 281 346
283 290 282 253 271 282 291 296 284 285 296 293 287 293 288 246 269 286 284 274 264 264 266 227 245 177 209 168 243 301 239 203 192 251 141 226 194 185 195 210 263 197 232 229 263 274 291
Height
1523 1518 1514 1511 1506 1501 1496 1492 1488 1483 1478 1472 1466 1459 1451 1441 1434 1423 1429 1435 1439 1444 1451 1457 1462 1466 1476 1481 1485 1483 1482 1485 1487 1489 1490 1493 1496 1499 1506 1511 1513 1517 1521 1523 1525 1525 1525
1525 1520 1516 1512 1509 1504 1499 1494 1490 1487 1482 1477 1472 1466 1460 1453 1444 1438 1437 1436 1440 1447 1454 1461 1465 1470 1478 1484 1485 1485 1486 1489 1491 1493 1492 1496 1499 1501 1507 1513 1515 1520 1522 1525 1527 1526 1527
1527 1523 1519 1515 1511 1507 1503 1497 1494 1490 1487 1482 1475 1471 1467 1462 1456 1454 1448 1444 1448 1454 1458 1463 1471 1481 1482 1487 1487 1488 1489 1492 1495 1496 1495 1498 1500 1502 1507 1514 1520 1522 1526 1527 1528 1528 1529
1529 1525 1521 1517 1514 1510 1506 1501 1497 1494 1490 1485 1480 1476 1474 1469 1465 1464 1463 1459 1461 1464 1468 1474 1478 1481 1484 1489 1489 1490 1493 1496 1497 1499 1497 1502 1503 1504 1510 1518 1522 1527 1531 1533 1531 1530 1530
1532 1528 1523 1519 1517 1513 1510 1506 1502 1499 1494 1490 1487 1484 1481 1477 1473 1472 1471 1470 1471 1476 1478 1479 1483 1483 1491 1493 1494 1494 1496 1499 1500 1502 1501 1505 1506 1511 1517 1524 1535 1536 1543 1534 1532 1532 1532
1534 1531 1527 1522 1518 1516 1512 1510 1507 1503 1498 1495 1492 1489 1486 1483 1478 1477 1478 1478 1479 1479 1481 1482 1484 1490 1498 1499 1497 1498 1500 1502 1503 1505 1506 1508 1511 1519 1526 1532 1546 1535 1538 1536 1535 1536 1533
1537 1533 1530 1525 1522 1518 1515 1512 1509 1506 1502 1498 1496 1494 1493 1489 1483 1480 1481 1482 1485 1490 1489 1496 1499 1497 1499 1501 1502 1503 1503 1505 1507 1508 1515 1515 1525 1541 1534 1532 1532 1534 1535 1536 1537 1537 1536
1540 1535 1531 1528 1524 1521 1517 1514 1511 1507 1504 1500 1498 1496 1496 1497 1496 1491 1487 1486 1492 1498 1500 1501 1503 1503 1503 1502 1504 1505 1507 1509 1511 1519 1518 1525 1537 1534 1533 1532 1534 1535 1536 1541 1539 1536 1538
1543 1538 1533 1530 1526 1522 1519 1515 1512 1509 1505 1502 1499 1498 1496 1496 1497 1499 1496 1497 1498 1499 1503 1508 1506 1507 1509 1509 1512 1512 1512 1513 1516 1524 1526 1532 1536 1533 1532 1536 1537 1543 1542 1542 1542 1539 1538
1546 1542 1537 1532 1528 1525 1521 1517 1514 1511 1508 1504 1501 1499 1498 1496 1497 1498 1500 1499 1499 1500 1514 1521 1515 1514 1513 1512 1516 1517 1515 1517 1521 1530 1531 1535 1534 1534 1535 1538 1539 1539 1541 1541 1541 1548 1554
1548 1544 1540 1535 1531 1526 1522 1519 1515 1512 1510 1507 1503 1501 1499 1498 1498 1498 1500 1498 1498 1497 1528 1523 1519 1519 1517 1515 1521 1519 1518 1517 1525 1529 1531 1540 1536 1536 1537 1539 1539 1541 1541 1542 1543 1549 1562
1549 1546 1543 1538 1534 1529 1525 1520 1516 1513 1511 1509 1506 1503 1501 1500 1499 1499 1497 1498 1499 1513 1549 1530 1521 1520 1518 1519 1521 1521 1521 1521 1526 1529 1532 1537 1536 1537 1538 1538 1539 1540 1542 1547 1551 1555 1573
1551 1548 1544 1540 1536 1532 1527 1522 1518 1514 1511 1509 1508 1505 1502 1501 1500 1498 1498 1499 1513 1536 1535 1531 1525 1523 1522 1524 1522 1523 1526 1529 1534 1544 1540 1540 1540 1538 1538 1539 1539 1541 1548 1573 1572 1579 1558
1553 1549 1546 1542 1538 1533 1529 1525 1520 1516 1511 1509 1508 1506 1504 1501 1500 1499 1497 1501 1535 1544 1538 1530 1528 1526 1526 1525 1527 1527 1529 1534 1532 1535 1548 1556 1559 1540 1540 1541 1542 1542 1547 1575 1564 1575 1568
1553 1550 1546 1542 1538 1535 1531 1526 1522 1516 1513 1509 1508 1506 1504 1502 1500 1500 1501 1531 1542 1536 1533 1532 1531 1533 1533 1531 1531 1531 1533 1536 1533 1533 1540 1545 1545 1539 1539 1539 1541 1542 1553 1549 1575 1566 1553
1553 1550 1547 1543 1539 1535 1531 1527 1523 1518 1513 1509 1508 1507 1505 1503 1501 1501 1505 1529 1529 1528 1528 1531 1535 1535 1535 1535 1535 1535 1537 1533 1532 1532 1533 1538 1547 1540 1539 1539 1541 1541 1544 1556 1562 1565 1561
1554 1551 1548 1544 1540 1536 1532 1527 1524 1520 1515 1510 1508 1508 1508 1505 1503 1503 1527 1531 1527 1527 1527 1530 1533 1534 1535 1535 1536 1537 1535 1534 1533 1533 1533 1536 1544 1545 1541 1541 1540 1545 1546 1549 1552 1557 1560
1552 1550 1548 1544 1541 1536 1532 1528 1524 1519 1515 1511 1508 1509 1508 1506 1508 1515 1527 1524 1525 1527 1528 1528 1529 1529 1531 1533 1534 1537 1535 1534 1530 1532 1535 1535 1541 1548 1536 1532 1533 1534 1537 1541 1550 1552 1543
1552 1550 1547 1544 1541 1537 1533 1529 1525 1521 1516 1512 1511 1510 1509 1507 1521 1526 1525 1525 1526 1528 1529 1530 1530 1529 1528 1530 1531 1531 1531 1530 1531 1532 1534 1534 1542 1554 1537 1535 1534 1532 1532 1533 1536 1540 1535
1550 1548 1546 1544 1541 1538 1534 1531 1527 1523 1518 1516 1514 1515 1512 1511 1516 1519 1525 1526 1527 1527 1528 1529 1529 1530 1531 1530 1529 1529 1528 1529 1530 1531 1532 1533 1540 1537 1542 1523 1528 1529 1526 1528 1527 1533 1525
1549 1547 1546 1544 1541 1539 1535 1532 1528 1524 1520 1519 1517 1520 1520 1523 1521 1522 1523 1525 1526 1526 1526 1526 1527 1527 1528 1530 1530 1530 1528 1529 1530 1530 1532 1534 1539 1542 1535 1530 1528 1522 1519 1522 1521 1510 1515
1547 1545 1544 1542 1540 1538 1535 1532 1529 1526 1522 1521 1522 1521 1520 1520 1520 1522 1524 1526 1525 1524 1527 1525 1525 1524 1527 1528 1525 1526 1527 1529 1528 1531 1532 1534 1537 1537 1536 1524 1523 1518 1510 1509 1505 1503 1496
1545 1543 1541 1539 1538 1536 1534 1532 1530 1527 1525 1523 1523 1523 1521 1523 1522 1523 1523 1522 1522 1523 1520 1521 1523 1524 1523 1520 1520 1521 1522 1522 1523 1526 1531 1535 1538 1539 1533 1526 1522 1509 1480 1484 1486 1484 1479
1541 1539 1538 1536 1535 1534 1533 1531 1530 1528 1526 1526 1525 1524 1522 1522 1523 1522 1520 1519 1518 1521 1521 1519 1520 1523 1521 1520 1519 1517 1517 1517 1518 1519 1521 1531 1535 1539 1536 1529 1527 1472 1473 1473 1475 1470 1473
1537 1535 1533 1532 1531 1531 1531 1530 1529 1528 1527 1526 1525 1525 1524 1523 1522 1519 1519 1520 1518 1517 1518 1517 1517 1516 1516 1518 1522 1522 1521 1517 1515 1517 1518 1519 1528 1532 1539 1541 1504 1463 1470 1474 1474 1459 1453
1531 1529 1528 1528 1528 1528 1527 1526 1526 1525 1525 1525 1525 1524 1524 1523 1520 1519 1518 1518 1519 1519 1518 1515 1515 1515 1516 1517 1522 1523 1520 1512 1514 1520 1519 1520 1520 1522 1533 1540 1520 1473 1470 1468 1468 1468 1446
1526 1524 1523 1524 1525 1524 1524 1523 1522 1522 1522 1523 1523 1523 1522 1522 1517 1517 1518 1517 1517 1517 1518 1516 1515 1515 1515 1518 1520 1522 1517 1512 1510 1517 1519 1523 1522 1514 1512 1514 1501 1467 1466 1469 1469 1461 1447
1522 1520 1520 1521 1521 1521 1521 1520 1519 1520 1520 1520 1520 1519 1519 1518 1516 1513 1514 1514 1515 1514 1514 1514 1515 1514 1517 1520 1518 1513 1516 1508 1507 1505 1509 1512 1516 1513 1513 1513 1503 1454 1464 1467 1451 1446 1446
1518 1517 1518 1518 1518 1518 1517 1517 1517 1517 1518 1517 1517 1517 1515 1514 1512 1511 1509 1507 1510 1511 1513 1510 1508 1506 1507 1511 1513 1510 1508 1507 1503 1500 1499 1501 1488 1495 1488 1472 1454 1453 1447 1445 1443 1442 1440